SCP
2 1 1 1 1 1 1 2 2 3 3 3 3 3 2 2 2 1 1 0 1 1 1 1 2 2 2 2 2 2 2 1 1 1 1 1 1 0 0 0 0 0 0
2 1 1 1 0 0 1 2 2 2 2 3 3 3 2 2 2 1 1 0 0 1 1 1 2 2 2 2 3 2 2 1 1 1 1 1 1 1 0 0 0 0 0
1 1 1 0 0 0 1 2 2 1 1 2 3 3 3 2 2 1 1 0 0 0 1 1 2 2 2 2 3 3 2 2 1 1 1 1 1 1 1 1 1 0 0
1 1 1 0 0 0 1 2 2 1 1 1 2 3 3 2 1 1 1 0 0 0 1 1 1 2 3 3 3 3 3 2 2 1 1 1 1 1 1 1 1 1 0
0 0 0 0 0 0 0 1 1 1 1 1 2 2 3 2 1 1 1 0 0 0 1 1 1 1 2 3 3 3 3 2 2 2 1 1 1 1 1 1 1 1 1
0 0 0 0 0 0 0 1 1 1 0 0 1 2 2 2 1 0 1 0 0 0 0 1 1 1 1 2 3 3 3 2 2 1 1 1 1 1 1 1 1 1 1
0 0 0 0 0 0 0 0 1 1 0 0 1 1 2 1 1 0 0 0 0 0 0 1 1 1 1 2 3 3 3 2 2 2 1 1 1 1 1 1 1 1 1
0 0 0 0 0 0 0 0 1 1 0 0 1 1 1 1 0 0 1 1 0 0 0 0 1 1 2 2 2 2 2 3 2 2 1 1 1 1 1 1 1 1 1
0 0 0 0 0 0 0 0 0 1 0 0 0 1 1 0 0 0 1 1 1 0 0 0 1 1 2 2 2 1 2 2 2 2 1 1 1 1 1 1 1 1 1
0 0 0 0 0 0 0 0 0 0 0 0 0 0 0 0 0 0 1 1 1 0 0 0 1 1 2 2 2 1 1 2 2 2 2 1 1 1 1 1 1 1 1
0 0 0 0 0 0 0 0 0 0 0 0 0 0 0 0 0 0 0 0 0 0 0 0 0 1 1 2 2 1 1 1 2 2 1 1 1 1 1 1 1 1 1
0 0 0 0 0 0 0 0 0 1 0 0 0 0 0 0 0 0 0 0 0 0 0 0 0 1 1 1 1 1 0 1 1 1 1 1 1 1 1 1 1 1 1
0 0 0 0 0 0 0 0 0 0 0 0 0 0 0 0 0 0 0 0 0 0 0 0 0 1 1 1 1 0 0 0 1 1 1 0 0 1 1 1 1 1 1
0 0 0 0 0 0 0 0 0 0 0 0 0 0 0 0 0 0 0 0 0 0 0 0 0 1 1 1 1 0 0 0 0 1 0 0 0 0 1 1 1 1 0
0 0 0 0 0 0 0 0 0 0 0 0 0 0 0 0 0 0 0 0 0 0 0 0 0 1 1 1 1 0 0 0 0 0 0 0 0 0 0 0 0 0 0
0 0 0 0 0 0 0 0 0 0 0 0 0 0 0 0 0 0 0 0 0 0 0 0 0 0 1 1 1 1 0 0 0 0 0 0 0 0 0 0 0 0 0
0 0 0 0 0 0 0 0 0 0 0 0 0 0 0 0 0 0 0 0 0 0 0 0 0 0 0 1 1 1 1 0 0 0 0 0 0 0 0 0 0 0 0
0 0 0 0 0 0 0 0 0 0 0 0 0 0 0 0 0 0 0 0 0 0 0 0 0 0 0 0 1 1 1 1 0 0 0 0 0 0 0 0 0 0 0
0 0 0 0 0 0 0 0 0 0 0 0 0 0 0 0 0 0 0 0 0 0 0 0 0 0 0 0 1 1 1 1 0 0 0 0 0 0 0 0 0 0 0
0 0 0 0 0 0 0 0 0 0 0 0 0 0 0 0 0 0 0 0 0 0 0 0 0 0 0 0 0 1 1 1 0 0 0 0 0 0 0 0 0 0 0
0 0 0 0 0 0 0 0 0 0 0 0 0 0 0 0 0 0 0 0 0 0 0 0 0 0 0 0 0 0 0 0 0 0 0 0 0 0 0 0 0 0 0
0 0 0 0 0 0 0 0 0 0 0 0 0 0 0 0 0 0 0 0 0 0 0 0 0 0 0 0 0 0 0 0 0 0 0 0 0 0 0 0 0 0 0
0 0 0 0 0 0 0 0 0 0 0 0 0 0 0 0 0 0 0 0 0 0 0 0 0 0 0 0 0 0 0 0 0 0 0 0 0 0 0 0 0 0 0
0 0 0 0 0 0 0 0 0 0 0 0 0 0 0 0 0 0 0 0 0 0 0 0 0 0 0 0 0 0 0 0 0 0 0 0 0 0 0 0 0 0 0
0 0 0 0 0 0 0 0 0 0 0 0 0 0 0 0 0 0 0 0 0 0 0 0 0 0 0 0 0 0 0 0 0 0 0 0 0 0 0 0 0 0 0
0 0 0 0 0 0 0 0 0 0 0 0 0 0 0 0 0 0 0 0 0 0 0 0 0 0 0 0 0 0 0 0 0 0 0 0 0 0 0 0 0 0 0
Wind_Speed
2 3 3 2 3 3 3 3 3 3 4 4 4 5 6 6 6 5 4 10 13 15 16 16 16 17 18 17 17 17 16 16 16 15 15 14 13 12 12 11 10 10 9
2 2 3 3 3 3 3 3 4 4 4 4 5 5 6 6 6 6 5 7 12 14 16 17 17 18 18 18 18 18 17 17 17 16 16 15 15 14 13 12 11 10 9
3 3 3 3 3 3 4 3 4 3 4 4 5 6 5 6 6 7 6 5 7 11 14 16 17 18 18 19 19 18 18 18 18 17 17 16 16 15 14 13 12 11 10
3 3 3 3 4 3 3 3 3 3 4 4 4 5 5 5 7 7 7 6 6 6 10 14 16 17 18 19 19 19 18 19 18 18 17 16 16 16 15 14 13 12 11
4 3 4 4 4 3 3 4 3 3 4 5 5 5 5 6 6 7 7 7 7 6 6 9 13 15 17 18 19 19 18 18 19 18 18 16 16 16 16 15 14 13 12
5 4 4 4 4 3 3 3 4 4 4 4 6 6 6 6 6 7 8 7 6 7 6 7 7 9 13 15 17 19 19 18 18 18 18 17 17 16 16 16 15 14 13
5 5 4 4 4 4 5 5 4 5 4 3 4 5 5 6 7 6 5 5 6 7 6 7 6 5 6 13 15 17 19 18 18 18 17 17 17 16 16 16 15 14 13
6 5 5 5 5 4 5 5 4 4 4 3 2 3 3 4 4 6 6 6 7 5 6 7 7 7 6 5 9 15 16 18 18 17 17 17 17 16 15 15 15 14 14
6 6 7 6 5 5 5 6 5 6 5 4 4 4 3 4 3 4 6 6 6 6 6 6 7 8 7 6 6 10 14 16 18 18 17 18 17 16 16 14 14 14 14
7 7 7 7 7 6 6 7 6 6 6 6 5 5 5 4 3 3 3 5 6 7 7 6 7 8 8 7 8 10 13 15 18 18 18 17 17 17 16 15 13 13 12
7 7 7 7 7 6 7 8 7 7 6 7 6 4 5 5 5 5 6 5 5 6 7 7 7 7 8 8 7 10 13 15 17 18 17 16 16 16 16 14 13 12 11
6 7 7 7 7 7 7 8 8 9 8 9 7 6 5 5 5 5 6 6 6 5 6 6 7 7 7 7 9 11 13 14 15 16 15 14 14 14 15 13 12 11 11
6 7 8 7 7 8 8 8 8 9 9 10 9 7 7 7 6 5 6 6 6 4 4 5 7 7 7 7 7 11 12 14 14 14 13 12 11 12 12 12 11 10 9
7 8 8 8 9 9 9 8 8 9 9 9 10 9 7 7 6 6 6 5 6 5 4 5 4 7 7 6 7 10 9 13 13 13 13 12 11 11 11 10 9 9 8
8 8 8 9 9 9 9 9 8 9 9 8 9 9 8 7 6 6 6 6 6 7 8 5 4 5 6 6 8 8 7 11 13 12 12 12 11 11 10 10 9 8 7
9 9 9 9 9 9 9 9 9 9 9 9 7 9 9 7 7 6 7 6 6 7 8 5 5 4 5 6 8 7 7 10 12 13 13 12 12 11 11 10 8 8 7
9 9 9 9 9 9 9 9 10 10 11 10 10 10 11 9 7 7 7 7 6 6 8 6 4 4 5 5 5 5 5 6 7 11 13 12 12 11 10 10 9 8 7
8 8 9 9 9 9 9 9 11 11 11 11 11 10 11 9 10 8 7 8 7 7 7 8 5 4 5 5 5 4 4 4 5 9 11 11 11 11 11 10 9 8 7
9 8 8 9 10 9 9 9 10 11 11 11 11 11 11 11 10 8 8 8 7 7 6 6 6 4 3 3 3 3 4 3 4 6 9 10 11 11 11 10 9 8 7
8 8 9 9 9 9 9 9 10 10 10 10 11 11 12 12 11 10 9 9 7 7 6 6 5 4 3 3 3 3 3 2 2 2 4 6 7 9 9 10 9 8 7
8 7 8 9 9 8 8 9 9 9 9 10 10 10 11 13 14 12 10 9 8 7 6 6 6 5 4 4 4 3 3 2 1 2 3 3 4 4 5 7 8 8 8
7 7 8 8 9 8 13 15 11 8 9 9 10 9 10 12 14 17 17 15 13 11 9 8 6 7 7 6 4 4 4 3 2 2 4 3 3 3 3 3 6 8 8
7 8 8 8 9 10 15 15 14 9 8 8 9 8 8 8 11 9 12 14 13 15 14 10 9 9 7 7 6 5 5 4 3 4 4 2 2 2 2 2 7 8 8
7 7 8 8 8 10 14 14 14 9 8 9 9 9 8 8 8 9 8 8 8 8 9 8 8 8 7 6 6 6 5 3 2 1 3 3 2 2 2 2 6 8 8
7 7 7 8 8 9 13 14 13 7 7 8 8 8 8 7 10 10 8 7 7 6 6 8 8 7 8 8 7 5 5 5 3 1 1 3 3 2 2 1 3 6 7
7 7 7 7 7 8 11 13 13 6 6 6 6 6 8 8 9 8 7 7 7 5 5 4 4 4 5 6 8 7 7 6 4 2 3 4 4 3 2 1 1 2 3
Wind_Direction
304 307 305 299 296 297 289 291 286 288 280 268 260 252 245 232 227 228 236 234 234 233 231 228 226 223 221 218 215 214 212 213 214 214 214 215 216 218 223 227 229 231 234
286 291 303 300 292 290 279 266 271 273 270 267 264 256 250 241 232 231 234 235 236 235 234 233 232 230 227 223 220 217 213 214 215 216 217 218 219 221 224 228 228 230 233
276 276 283 292 292 291 292 281 275 268 273 268 266 260 254 245 242 236 234 232 235 237 237 235 235 235 232 229 225 221 218 217 217 218 219 219 220 222 225 226 228 230 233
272 270 272 278 282 283 284 285 273 274 274 269 266 263 257 250 243 237 234 231 231 235 236 239 238 239 238 235 230 227 224 221 219 220 221 221 221 221 221 224 228 229 233
272 263 262 270 280 278 273 285 281 261 271 278 270 263 259 249 244 237 231 230 230 233 232 236 237 241 240 238 236 233 229 225 223 222 222 221 222 224 223 224 225 228 232
277 266 264 263 265 266 268 271 278 271 258 269 278 271 262 255 243 234 228 227 227 230 234 236 231 236 240 240 240 238 234 230 226 225 224 223 224 225 228 227 224 226 230
270 264 267 260 256 253 255 260 269 272 268 266 279 282 272 254 243 234 224 220 223 226 231 235 234 232 237 238 240 240 239 235 231 227 224 224 225 225 228 227 224 226 230
266 272 261 257 254 257 259 255 258 261 267 248 246 277 292 284 248 236 225 222 221 222 229 235 235 232 234 232 238 241 240 240 237 232 227 225 225 226 226 228 227 229 231
262 262 260 254 250 248 251 252 244 250 256 252 223 225 237 254 293 248 226 225 222 223 225 229 232 233 235 236 235 233 235 239 239 234 231 227 225 226 227 228 231 232 234
262 259 257 252 250 247 248 249 245 245 241 251 247 234 235 230 249 282 256 231 229 229 226 230 230 232 231 231 233 234 232 233 237 238 235 231 228 226 227 227 232 234 233
264 260 257 251 248 247 248 247 247 246 237 239 246 247 251 247 233 244 266 255 245 232 227 225 227 230 231 228 228 232 233 232 235 238 237 233 231 228 226 228 230 234 232
265 261 262 254 249 247 247 246 244 244 243 241 244 240 237 240 233 232 249 250 252 250 238 229 227 229 229 226 229 232 233 232 232 234 235 233 233 233 229 226 226 230 229
270 263 263 257 252 247 247 248 245 244 242 240 240 242 240 242 245 245 250 256 263 269 252 241 225 225 232 228 226 229 232 230 228 230 229 226 226 227 226 220 221 224 228
268 266 260 258 255 251 251 248 245 244 245 240 244 243 246 242 239 239 240 244 263 271 258 251 237 223 227 225 228 226 230 228 228 226 223 218 216 216 215 213 214 217 220
271 266 261 258 256 252 250 249 246 246 245 241 242 241 244 246 239 239 238 229 232 257 261 251 245 226 221 225 227 223 228 227 228 224 218 212 210 207 205 201 202 205 210
270 272 266 261 261 259 255 252 251 248 249 246 243 242 242 241 238 236 234 238 231 237 258 248 248 251 235 239 234 227 228 233 224 219 215 208 202 199 195 191 194 198 201
270 271 270 266 264 262 258 256 254 250 250 248 246 244 243 237 235 235 231 233 234 229 250 264 253 248 241 234 234 229 228 227 221 217 214 205 198 192 189 186 188 190 192
268 266 271 269 267 265 259 256 255 253 249 246 244 245 243 238 235 232 233 232 232 229 234 254 255 247 249 230 224 227 239 234 220 212 207 200 194 189 185 184 181 182 184
273 267 269 269 267 265 262 260 258 254 250 246 242 242 241 235 236 233 234 234 231 234 229 237 249 247 251 228 223 243 245 243 222 202 197 190 183 181 178 175 171 171 171
273 270 267 268 268 267 265 264 261 258 255 251 244 241 238 232 235 234 234 230 227 228 224 227 239 237 239 225 209 221 246 235 210 187 174 169 168 174 176 171 167 166 166
274 271 272 274 272 267 264 266 261 259 257 255 250 243 239 239 240 238 239 226 219 225 221 220 229 233 222 211 210 212 225 204 167 167 153 158 158 169 175 172 165 164 165
278 275 274 276 278 278 282 284 280 267 261 257 255 250 245 243 244 244 245 239 228 223 219 218 225 225 224 214 198 200 192 187 213 172 152 151 141 164 178 173 162 164 166
281 280 278 277 278 282 287 285 283 278 264 260 255 253 253 246 244 239 242 243 240 235 227 220 219 224 220 206 188 198 206 189 192 167 144 145 144 169 161 155 153 158 159
282 280 281 280 281 285 291 288 287 277 267 262 258 252 250 249 244 232 229 230 230 229 226 224 221 224 218 200 193 196 185 151 106 122 137 140 137 130 111 129 142 144 148
292 286 282 281 280 284 289 291 289 276 270 266 262 256 250 246 247 236 226 221 222 222 221 221 223 214 201 195 185 164 166 161 164 183 143 134 133 105 82 89 124 132 138
292 292 292 288 283 282 286 291 290 276 271 269 267 256 254 255 244 237 223 212 213 210 195 197 192 187 185 182 187 187 181 175 162 169 168 135 138 132 114 35 92 120 128